White Plains, CT

1:18 PM EST on December 06, 2019 (GMT -0500)
Westchester County

Weather History for KHPN - August, 2019

Change the Weather History Date:

Thursday, August 22, 2019

  Actual Average Record
Temperature  
Mean Temperature 80 °F -  
Max Temperature 88 °F 77 °F 89 °F (2003)
Min Temperature 71 °F 61 °F 45 °F (1982)
Cooling Degree Days 14    
Growing Degree Days 30 (Base 50)    
Moisture  
Dew Point 70 °F    
Average Humidity 81    
Maximum Humidity 97    
Minimum Humidity 46    
Precipitation  
Precipitation 0.45 in - - ()
Sea Level Pressure  
Sea Level Pressure 29.86 in    
Wind  
Wind Speed 4 mph ()    
Max Wind Speed 21 mph    
Max Gust Speed 39 mph    
Visibility 8.6 miles    
Events Rain    
Averages and records for this station are not official NWS values.
T = Trace of Precipitation, MM = Missing Value Source: Averaged Metar Reports

Daily Weather History Graph

Daily Weather History Graph

Search for Another Location

Airport or City:

Astronomy

Aug. 22, 2019 Rise Set
Actual Time 6:11 AM EDT 7:43 PM EDT
Civil Twilight 5:42 AM EDT 8:12 PM EDT
Nautical Twilight 5:07 AM EDT 8:47 PM EDT
Astronomical Twilight 4:30 AM EDT 9:24 PM EDT
Moon 11:28 PM EDT (8/22) 12:47 PM EDT (8/22)
Length of Visible Light 14h 30m
Length of Day
13h 32m
Waning Gibbous, 60% of the Moon is Illuminated
Aug 22
Waning Gibbous
Aug 23
Last Quarter
Aug 30
New
Sep 5
First Quarter
Sep 14
Full

Hourly Weather History & Observations

Time (EDT) Temp. Heat Index Dew Point Humidity Pressure Visibility Wind Dir Wind Speed Gust Speed Precip Events Conditions
12:56 AM 75.0 °F - 71.1 °F 87% 29.86 in 10.0 mi Calm Calm - N/A   Clear
1:56 AM 73.9 °F - 71.1 °F 91% 29.83 in 10.0 mi WNW 4.6 mph - N/A   Partly Cloudy
2:56 AM 73.9 °F - 71.1 °F 91% 29.82 in 10.0 mi Calm Calm - N/A   Partly Cloudy
3:56 AM 72.0 °F - 70.0 °F 93% 29.81 in 10.0 mi West 4.6 mph - N/A   Clear
4:56 AM 73.0 °F - 70.0 °F 90% 29.81 in 10.0 mi Calm Calm - N/A   Clear
5:56 AM 71.1 °F - 69.1 °F 93% 29.82 in 10.0 mi WNW 3.5 mph - N/A   Clear
6:56 AM 73.0 °F - 71.1 °F 93% 29.84 in 10.0 mi West 3.5 mph - N/A   Clear
7:56 AM 73.9 °F - 71.1 °F 91% 29.86 in 10.0 mi West 3.5 mph - N/A   Clear
8:56 AM 78.1 °F - 71.1 °F 79% 29.86 in 10.0 mi WNW 5.8 mph - N/A   Partly Cloudy
9:56 AM 80.1 °F 82.9 °F 69.1 °F 69% 29.87 in 10.0 mi WNW 5.8 mph - N/A   Partly Cloudy
10:56 AM 82.0 °F 84.9 °F 68.0 °F 62% 29.87 in 10.0 mi WNW 9.2 mph - N/A   Partly Cloudy
11:56 AM 84.0 °F 86.3 °F 66.0 °F 55% 29.87 in 10.0 mi NNW 8.1 mph - N/A   Partly Cloudy
12:56 PM 84.9 °F 87.6 °F 66.9 °F 55% 29.86 in 10.0 mi NW 8.1 mph - N/A   Partly Cloudy
1:56 PM 84.9 °F 87.6 °F 66.9 °F 55% 29.86 in 10.0 mi WNW 9.2 mph - N/A   Scattered Clouds
2:56 PM 86.0 °F 88.2 °F 66.0 °F 51% 29.85 in 10.0 mi Variable 3.5 mph - N/A   Scattered Clouds
3:56 PM 88.0 °F 89.6 °F 64.9 °F 46% 29.83 in 10.0 mi West 8.1 mph - N/A   Scattered Clouds
4:56 PM 84.9 °F 86.6 °F 64.9 °F 51% 29.85 in 10.0 mi West 19.6 mph 28.8 mph N/A   Scattered Clouds
5:05 PM 75.0 °F - 71.1 °F 87% 29.89 in 1.8 mi NW 20.7 mph 39.1 mph 0.13 in Rain Rain
5:15 PM 73.9 °F - 72.0 °F 93% 29.88 in 1.0 mi NNW 13.8 mph - 0.20 in Rain Rain
5:22 PM 75.0 °F - 73.0 °F 94% 29.86 in 7.0 mi North 6.9 mph - 0.20 in Rain Light Rain
5:56 PM 75.9 °F - 72.0 °F 87% 29.84 in 10.0 mi North 6.9 mph - 0.20 in   Partly Cloudy
6:56 PM 77.0 °F - 72.0 °F 84% 29.85 in 10.0 mi NW 5.8 mph - N/A   Mostly Cloudy
7:56 PM 73.9 °F - 73.0 °F 97% 29.86 in 10.0 mi Calm Calm - N/A   Mostly Cloudy
8:56 PM 73.0 °F - 70.0 °F 90% 29.90 in 3.0 mi West 5.8 mph - 0.11 in Rain Light Rain
9:56 PM 73.0 °F - 71.1 °F 93% 29.90 in 8.0 mi Calm Calm - 0.04 in   Mostly Cloudy
10:33 PM 72.0 °F - 70.0 °F 93% 29.93 in 1.5 mi South 6.9 mph - 0.08 in Rain Light Rain
10:56 PM 71.1 °F - 69.1 °F 93% 29.89 in 8.0 mi SE 4.6 mph - 0.10 in Rain Light Rain
11:56 PM 71.1 °F - 69.1 °F 93% 29.90 in 10.0 mi Calm Calm - 0.00 in   Mostly Cloudy